Ballincollig, Ireland

9:52 AM IST on September 25, 2017 (GMT +0100)
Ballincollig

Weather History for 03955 - January, 2014

Change the Weather History Date:

Friday, January 31, 2014

  Actual Average Record
Temperature  
Mean Temperature 40 °F -  
Max Temperature 48 °F 46 °F - ()
Min Temperature 33 °F 37 °F - ()
Degree Days  
Heating Degree Days 24    
Moisture  
Dew Point 40 °F    
Average Humidity 92    
Maximum Humidity 100    
Minimum Humidity 69    
Precipitation  
Precipitation 0.55 in 0.15 in - ()
Sea Level Pressure  
Sea Level Pressure 29.11 in    
Wind  
Wind Speed 12 mph ()    
Max Wind Speed 27 mph    
Max Gust Speed 48 mph    
Visibility 8.0 miles    
Events Fog , Rain    
T = Trace of Precipitation, MM = Missing Value Source: Averaged Metar Reports

Daily Weather History Graph

Daily Weather History Graph

Search for Another Location

Airport or City:

Trip Planner

Search our weather history database for the weather conditions in past years. The results will help you decide how hot, cold, wet, or windy it might be!

Date:

Astronomy

Jan. 31, 2014 Rise Set
Actual Time 8:15 AM GMT 5:20 PM GMT
Civil Twilight 7:38 AM GMT 5:57 PM GMT
Nautical Twilight 6:57 AM GMT 6:37 PM GMT
Astronomical Twilight 6:18 AM GMT 7:17 PM GMT
Moon 8:04 AM GMT (1/31) 6:42 PM GMT (1/31)
Length of Visible Light 10h 18m
Length of Day
9h 05m
New Moon, 1% of the Moon is Illuminated
Jan 31
New Moon
Feb 6
First Quarter
Feb 14
Full
Feb 22
Last Quarter
Mar 1
New

Hourly Weather History & Observations

Time (GMT) Temp. Windchill Dew Point Humidity Pressure Visibility Wind Dir Wind Speed Gust Speed Precip Events Conditions
12:00 AM 38 °F - 38 °F 98% 29.58 in 0 mi SSW 4.5 mph - - Fog Partial Fog
12:00 AM 37.4 °F 33.8 °F 37.4 °F 100% 29.53 in 0.4 mi SSW 4.6 mph - N/A Fog Fog
12:30 AM 39.2 °F 35.9 °F 39.2 °F 100% 29.53 in 6.2 mi South 4.6 mph - N/A   Mostly Cloudy
1:00 AM 39 °F - 38 °F 97% 29.56 in 19 mi South 6.7 mph - - Fog Light Fog
1:00 AM 39.2 °F 34.2 °F 39.2 °F 100% 29.53 in 6.2 mi South 6.9 mph - N/A   Mostly Cloudy
1:30 AM 39.2 °F 35.0 °F 39.2 °F 100% 29.50 in 6.2 mi South 5.8 mph - N/A   Mostly Cloudy
2:00 AM 39 °F - 38 °F 97% 29.52 in 19 mi South 6.7 mph - -   Partly Cloudy
2:00 AM 39.2 °F 34.2 °F 39.2 °F 100% 29.47 in 6.2 mi South 6.9 mph - N/A   Mostly Cloudy
2:30 AM 39.2 °F 33.0 °F 39.2 °F 100% 29.47 in 6.2 mi SSE 9.2 mph - N/A   Mostly Cloudy
3:00 AM 41 °F - 40 °F 96% 29.45 in 19 mi South 11.2 mph - -   Partly Cloudy
3:00 AM 41.0 °F 34.7 °F 41.0 °F 100% 29.42 in 6.2 mi South 10.4 mph - N/A   Mostly Cloudy
3:30 AM 42.8 °F 37.0 °F 41.0 °F 93% 29.42 in 6.2 mi South 10.4 mph - N/A Rain Light Rain
4:00 AM 42 °F - 42 °F 99% 29.42 in 14 mi South 11.2 mph - - Rain Light Rain
4:00 AM 42.8 °F 36.6 °F 41.0 °F 93% 29.39 in 6.2 mi South 11.5 mph - N/A Rain Light Rain
4:30 AM 41.0 °F 33.9 °F 41.0 °F 100% 29.36 in 6.2 mi South 12.7 mph - N/A Rain Light Rain
5:00 AM 41 °F - 40 °F 92% 29.38 in 12 mi South 13.4 mph - - Rain Light Rain
5:00 AM 41.0 °F 33.5 °F 39.2 °F 93% 29.36 in 6.2 mi South 13.8 mph - N/A Rain Light Rain
5:30 AM 39.2 °F 30.2 °F 39.2 °F 100% 29.30 in 6.2 mi South 17.3 mph - N/A Rain Light Rain
6:00 AM 40 °F - 38 °F 90% 29.30 in 12 mi South 17.9 mph - - Rain Light Rain
6:00 AM 39.2 °F 29.8 °F 37.4 °F 93% 29.27 in 6.2 mi South 18.4 mph - N/A Rain Light Rain
6:30 AM 39.2 °F 29.6 °F 39.2 °F 100% 29.21 in 6.2 mi South 19.6 mph - N/A Rain Light Rain
7:00 AM 40 °F - 39 °F 96% 29.20 in 5 mi South 22.4 mph - - Rain Light Rain
7:00 AM 41.0 °F 31.1 °F 39.2 °F 93% 29.18 in 5.0 mi South 23.0 mph 35.7 mph N/A Rain Light Rain
7:30 AM 41.0 °F 31.4 °F 41.0 °F 100% 29.15 in 4.3 mi South 21.9 mph 36.8 mph N/A Rain Rain
8:00 AM 42 °F - 42 °F 99% 29.13 in 5 mi South 24.6 mph - - Rain Rain
8:00 AM 42.8 °F 33.1 °F 41.0 °F 93% 29.09 in 5.0 mi South 25.3 mph 48.3 mph N/A Rain Rain
8:30 AM 44.6 °F 35.5 °F 42.8 °F 93% 29.06 in 3.7 mi South 25.3 mph 40.3 mph N/A Rain Rain
9:00 AM 45 °F - 45 °F 98% 29.06 in 3 mi South 24.6 mph - - Rain Rain
9:00 AM 44.6 °F 35.5 °F 44.6 °F 100% 29.03 in 3.1 mi South 25.3 mph 40.3 mph N/A Rain Rain
9:30 AM 46.4 °F 38.7 °F 46.4 °F 100% 29.00 in 3.1 mi South 20.7 mph - N/A Rain Rain
10:00 AM 48 °F - 47 °F 97% 29.05 in 4 mi SW 17.9 mph - - Rain Light Rain
10:00 AM 48.2 °F - 48.2 °F 100% 29.03 in 3.7 mi SW 18.4 mph 32.2 mph N/A Rain Light Rain
10:30 AM 48.2 °F - 48.2 °F 100% 29.03 in 5.6 mi WSW 13.8 mph - N/A Rain Light Rain
11:00 AM 48 °F - 47 °F 96% 29.04 in 25 mi SW 11.2 mph - - Rain Light Rain
11:00 AM 48.2 °F - 48.2 °F 100% 29.03 in 6.2 mi SW 10.4 mph - N/A   Mostly Cloudy
11:30 AM 48.2 °F - 46.4 °F 93% 29.03 in 6.2 mi WSW 15.0 mph - N/A   Mostly Cloudy
12:00 PM 47 °F - 46 °F 95% 29.04 in 19 mi WSW 15.7 mph - -   Partly Cloudy
12:00 PM 46.4 °F 40.1 °F 46.4 °F 100% 29.03 in 6.2 mi WSW 15.0 mph - N/A   Mostly Cloudy
12:30 PM 46.4 °F 40.1 °F 44.6 °F 93% 29.03 in 6.2 mi SW 15.0 mph - N/A   Mostly Cloudy
1:00 PM 46 °F - 44 °F 91% 29.05 in 11 mi WSW 15.7 mph - - Rain Light Rain Showers
1:00 PM 46.4 °F 39.8 °F 44.6 °F 93% 29.03 in 6.2 mi WSW 16.1 mph - N/A   Mostly Cloudy
1:30 PM 46.4 °F 40.1 °F 44.6 °F 93% 29.00 in 6.2 mi WSW 15.0 mph - N/A   Mostly Cloudy
2:00 PM 46 °F - 43 °F 84% 29.03 in 16 mi WSW 13.4 mph - - Rain Light Rain Showers
2:00 PM 46.4 °F 40.4 °F 42.8 °F 87% 29.00 in 6.2 mi WSW 13.8 mph - N/A   Scattered Clouds
2:30 PM 46.4 °F 39.8 °F 42.8 °F 87% 29.00 in 6.2 mi WSW 16.1 mph - N/A Rain Light Rain Showers
3:00 PM 47 °F - 42 °F 79% 29.00 in 16 mi WSW 11.2 mph - - Rain Light Rain Showers
3:00 PM 48.2 °F - 42.8 °F 82% 28.97 in 6.2 mi WSW 11.5 mph - N/A   Partly Cloudy
3:30 PM 46.4 °F 40.4 °F 39.2 °F 76% 28.97 in 6.2 mi WSW 13.8 mph - N/A   Partly Cloudy
4:00 PM 46 °F - 40 °F 72% 28.97 in 16 mi SSW 8.9 mph - -   Scattered Clouds
4:00 PM 46.4 °F 41.9 °F 39.2 °F 76% 28.94 in 6.2 mi SSW 9.2 mph - N/A   Partly Cloudy
4:30 PM 44.6 °F 39.2 °F 39.2 °F 81% 28.94 in 6.2 mi SSW 10.4 mph - N/A   Scattered Clouds
5:00 PM 44 °F - 37 °F 69% 28.93 in 16 mi SSW 13.4 mph - - Rain Light Rain Showers
5:00 PM 44.6 °F 38.1 °F 37.4 °F 76% 28.91 in 6.2 mi SSW 13.8 mph - N/A   Scattered Clouds
5:30 PM 44.6 °F 38.4 °F 41.0 °F 87% 28.88 in 6.2 mi South 12.7 mph - N/A   Mostly Cloudy
6:00 PM 45 °F - 42 °F 86% 28.87 in 12 mi South 17.9 mph - - Rain Light Rain Showers
6:00 PM 44.6 °F 37.2 °F 42.8 °F 93% 28.85 in 6.2 mi South 17.3 mph 28.8 mph N/A   Mostly Cloudy
6:30 PM 41.0 °F 32.5 °F 39.2 °F 93% 28.85 in 6.2 mi SW 17.3 mph - N/A   Mostly Cloudy
7:00 PM 39 °F - 38 °F 94% 28.88 in 12 mi SW 13.4 mph - - Rain Light Rain
7:00 PM 39.2 °F 31.2 °F 37.4 °F 93% 28.85 in 6.2 mi SW 13.8 mph - N/A Rain Light Rain Showers
7:30 PM 41.0 °F 33.5 °F 39.2 °F 93% 28.85 in 6.2 mi SW 13.8 mph 29.9 mph N/A Rain Light Rain Showers
8:00 PM 39 °F - 36 °F 87% 28.88 in 12 mi WSW 17.9 mph - - Rain Light Rain Showers
8:00 PM 39.2 °F 29.8 °F 37.4 °F 93% 28.85 in 6.2 mi WSW 18.4 mph 32.2 mph N/A   Mostly Cloudy
8:30 PM 39.2 °F 30.2 °F 35.6 °F 87% 28.85 in 6.2 mi WSW 17.3 mph - N/A   Mostly Cloudy
9:00 PM 38 °F - 35 °F 85% 28.92 in 12 mi West 26.8 mph - - Rain Light Rain Showers
9:00 PM 37.4 °F 25.6 °F 35.6 °F 93% 28.88 in 6.2 mi West 26.5 mph - N/A Rain Light Rain Showers
9:30 PM 35.6 °F 25.5 °F 33.8 °F 93% 28.91 in 6.2 mi West 17.3 mph - N/A   Mostly Cloudy
10:00 PM 36 °F - 32 °F 81% 28.95 in 19 mi West 17.9 mph - - Rain Light Rain Showers
10:00 PM 35.6 °F 25.5 °F 32.0 °F 87% 28.91 in 6.2 mi West 17.3 mph - N/A   Mostly Cloudy
10:30 PM 35.6 °F 28.0 °F 32.0 °F 87% 28.94 in 6.2 mi WSW 10.4 mph - N/A   Partly Cloudy
11:00 PM 35 °F - 31 °F 82% 28.98 in 19 mi WSW 11.2 mph - -   Mostly Cloudy
11:00 PM 33.8 °F 25.3 °F 32.0 °F 93% 28.94 in 6.2 mi WSW 11.5 mph - N/A   Mostly Cloudy
11:30 PM 33.8 °F 25.3 °F 30.2 °F 87% 28.94 in 6.2 mi SW 11.5 mph - N/A   Scattered Clouds